Reno, NV

1:41 AM PDT on June 24, 2017 (GMT -0700)
Reno-Tahoe International

Weather History for KRNO - September, 2013

Change the Weather History Date:

Sunday, September 15, 2013

  Actual Average Record
Temperature  
Mean Temperature 74 °F 66 °F  
Max Temperature 90 °F 82 °F 95 °F (1937)
Min Temperature 58 °F 49 °F 28 °F (1970)
Degree Days  
Heating Degree Days 0 2  
Month to date heating degree days 0 21  
Since 1 July heating degree days 0 31  
Cooling Degree Days 9 3  
Month to date cooling degree days 128 61  
Year to date cooling degree days 1164 807  
Growing Degree Days 24 (Base 50)    
Moisture  
Dew Point 40 °F    
Average Humidity 37    
Maximum Humidity 60    
Minimum Humidity 13    
Precipitation  
Precipitation 0.00 in 0.01 in 0.59 in (1982)
Month to date precipitation T 0.13  
Year to date precipitation 3.04 4.82  
Snow  
Snow 0.00 in 0.00 in 0.00 in ()
Month to date snowfall 0.0 0.0  
Since 1 July snowfall T 0.0  
Since 1 September snowfall 0.0 0.0  
Snow Depth 0.00 in    
Sea Level Pressure  
Sea Level Pressure 29.75 in    
Wind  
Wind Speed 8 mph (WSW)    
Max Wind Speed 26 mph    
Max Gust Speed 33 mph    
Visibility 10 miles    
Events      
T = Trace of Precipitation, MM = Missing Value Source: NWS Daily Summary

Daily Weather History Graph

Daily Weather History Graph

Search for Another Location

Airport or City:

Trip Planner

Search our weather history database for the weather conditions in past years. The results will help you decide how hot, cold, wet, or windy it might be!

Date:

Astronomy

Sep. 15, 2013 Rise Set
Actual Time 6:40 AM PDT 7:07 PM PDT
Civil Twilight 6:13 AM PDT 7:33 PM PDT
Nautical Twilight 5:41 AM PDT 8:05 PM PDT
Astronomical Twilight 5:09 AM PDT 8:38 PM PDT
Moon 4:37 PM PDT (9/15) 2:25 AM PDT (9/15)
Length of Visible Light 13h 20m
Length of Day
12h 26m
Waxing Gibbous, 83% of the Moon is Illuminated
Sep 15
Waxing Gibbous
Sep 19
Full
Sep 26
Last Quarter
Oct 4
New
Oct 11
First Quarter

Hourly Weather History & Observations

Time (PDT) Temp. Dew Point Humidity Pressure Visibility Wind Dir Wind Speed Gust Speed Precip Events Conditions
12:55 AM 69.1 °F 46.9 °F 45% 29.75 in 10.0 mi West 4.6 mph - N/A   Clear
1:55 AM 64.9 °F 48.0 °F 54% 29.75 in 10.0 mi Calm Calm - N/A   Partly Cloudy
2:55 AM 63.0 °F 48.0 °F 58% 29.75 in 10.0 mi SSW 3.5 mph - N/A   Partly Cloudy
3:55 AM 64.0 °F 48.0 °F 56% 29.75 in 10.0 mi Calm Calm - N/A   Scattered Clouds
4:55 AM 62.1 °F 48.0 °F 60% 29.76 in 10.0 mi Calm Calm - N/A   Scattered Clouds
5:55 AM 61.0 °F 46.9 °F 60% 29.77 in 10.0 mi Calm Calm - N/A   Scattered Clouds
6:55 AM 61.0 °F 46.9 °F 60% 29.77 in 10.0 mi Calm Calm - N/A   Partly Cloudy
7:55 AM 64.0 °F 46.0 °F 52% 29.79 in 10.0 mi Calm Calm - N/A   Partly Cloudy
8:55 AM 68.0 °F 45.0 °F 43% 29.78 in 10.0 mi Calm Calm - N/A   Partly Cloudy
9:55 AM 73.0 °F 46.9 °F 39% 29.78 in 10.0 mi Calm Calm - N/A   Partly Cloudy
10:55 AM 78.1 °F 45.0 °F 31% 29.76 in 10.0 mi East 4.6 mph - N/A   Clear
11:55 AM 87.1 °F 30.0 °F 13% 29.74 in 10.0 mi South 24.2 mph 33.4 mph N/A   Partly Cloudy
12:55 PM 89.1 °F 32.0 °F 13% 29.73 in 10.0 mi SSW 21.9 mph 25.3 mph N/A   Partly Cloudy
1:55 PM 88.0 °F 32.0 °F 14% 29.72 in 10.0 mi WSW 18.4 mph 24.2 mph N/A   Partly Cloudy
2:55 PM 89.1 °F 34.0 °F 14% 29.71 in 10.0 mi SSW 19.6 mph 25.3 mph N/A   Partly Cloudy
3:55 PM 89.1 °F 34.0 °F 14% 29.70 in 10.0 mi SW 20.7 mph 27.6 mph N/A   Partly Cloudy
4:55 PM 87.1 °F 36.0 °F 16% 29.70 in 10.0 mi WSW 17.3 mph 27.6 mph N/A   Partly Cloudy
5:55 PM 84.0 °F 37.0 °F 19% 29.72 in 10.0 mi WSW 12.7 mph - N/A   Clear
6:55 PM 80.1 °F 37.9 °F 22% 29.75 in 10.0 mi West 9.2 mph - N/A   Clear
7:55 PM 75.9 °F 36.0 °F 23% 29.78 in 10.0 mi WSW 11.5 mph - N/A   Partly Cloudy
8:55 PM 75.0 °F 34.0 °F 22% 29.78 in 10.0 mi Variable 6.9 mph - N/A   Clear
9:55 PM 73.0 °F 34.0 °F 24% 29.78 in 10.0 mi WNW 9.2 mph - N/A   Clear
10:55 PM 69.1 °F 34.0 °F 27% 29.78 in 10.0 mi NE 4.6 mph - N/A   Clear
11:55 PM 66.9 °F 35.1 °F 31% 29.76 in 10.0 mi NE 5.8 mph - N/A   Clear